Wind_Speed
14 14 13 12 12 12 9 7 6 6 6 5 5 5 5 5 5 5 4 4 4 4 4 3 3 3 3 4 4 5 6 6 7 7 7 7 5 5 6 6 6 5 5 4 4 4 4 4 4
14 14 14 14 14 11 9 7 8 7 6 6 6 6 5 5 6 5 5 4 5 4 4 4 4 4 4 5 5 5 6 6 6 7 7 6 5 5 6 6 6 5 5 5 5 4 3 3 4
14 14 16 15 12 10 10 9 8 7 7 6 6 6 6 6 6 6 6 5 5 5 4 4 4 5 5 5 5 6 6 6 6 6 6 6 6 5 6 6 5 5 4 4 5 4 4 3 3
13 15 17 15 10 10 10 9 8 8 7 7 7 6 6 6 6 6 6 6 5 6 5 5 4 5 6 6 5 6 5 6 6 6 6 6 6 6 6 5 5 4 4 4 4 3 3 3 2
15 16 16 13 10 9 9 9 8 8 8 7 7 7 7 7 7 7 7 7 7 7 6 6 6 5 5 4 3 4 5 6 6 6 5 5 5 6 6 5 4 4 3 2 2 2 2 1 2
14 14 13 11 10 9 8 9 9 9 8 8 8 8 7 7 7 7 7 7 7 6 6 6 6 6 5 5 4 5 5 6 6 6 5 4 6 6 5 5 3 3 3 1 1 1 2 2 2
12 14 11 9 8 9 8 9 9 9 9 9 9 8 8 7 7 7 7 7 7 6 6 6 6 6 6 5 5 5 5 5 6 5 5 4 5 4 4 3 3 1 1 1 1 2 2 2 3
12 12 9 8 8 8 8 8 9 9 9 9 8 8 8 8 7 7 7 7 7 6 6 6 6 5 6 5 4 4 5 5 5 5 5 4 3 3 2 2 2 1 1 1 1 1 1 1 3
10 10 8 7 6 7 8 8 8 8 9 9 9 8 8 8 8 7 7 7 6 6 6 6 6 5 5 5 4 4 4 4 5 4 4 3 3 2 1 1 1 1 1 1 1 1 1 1 1
10 7 6 5 6 7 9 8 8 8 8 8 8 8 8 8 8 8 8 7 7 6 6 6 6 6 5 5 4 4 4 4 4 3 3 2 2 1 0 1 2 1 1 0 0 1 1 2 1
7 5 5 6 6 7 8 8 8 8 8 9 8 8 8 8 7 8 8 8 7 7 7 7 6 6 6 5 5 4 4 4 3 2 2 1 1 1 0 0 1 1 1 1 1 2 2 2 3
5 5 5 6 7 7 6 7 7 8 8 8 8 8 8 8 7 8 8 7 7 7 7 7 6 6 5 5 5 4 4 4 3 2 2 1 0 1 1 0 1 1 1 2 3 3 3 3 4
4 5 6 5 7 7 7 7 7 7 7 7 8 8 7 7 7 7 7 7 7 8 7 7 7 6 6 5 5 4 3 3 2 2 2 1 0 0 1 1 1 2 2 3 4 4 5 5 5
4 5 6 6 6 7 8 8 8 8 8 7 7 7 7 7 7 7 7 7 7 7 7 7 6 6 6 6 5 5 4 3 3 2 1 1 1 1 2 2 2 3 3 4 5 6 6 6 6
4 5 6 6 7 7 8 8 7 7 8 8 7 7 7 7 6 6 6 6 7 7 7 7 6 6 6 6 6 5 5 4 3 3 2 1 1 2 2 2 3 3 4 4 5 5 6 7 7
4 4 6 6 7 7 7 7 7 7 7 8 7 7 7 7 6 6 5 5 6 6 6 6 6 6 6 6 6 5 5 5 4 4 3 3 3 3 2 3 3 3 4 5 5 5 6 7 8
1 3 5 5 6 6 7 7 7 7 8 8 7 7 7 7 6 5 5 5 5 6 6 6 6 6 6 6 5 5 5 5 4 4 4 3 3 3 3 3 3 4 5 6 6 6 7 8 8
2 3 4 5 5 5 6 8 7 7 8 8 8 7 7 6 5 5 5 5 5 6 6 6 6 6 7 7 6 6 5 5 5 5 5 4 4 4 4 4 4 5 6 6 7 7 8 8 9
3 4 5 5 6 6 6 8 8 8 7 8 8 8 7 7 6 5 5 5 5 5 5 6 7 6 7 7 7 6 6 5 5 6 6 6 5 5 4 4 5 6 6 6 6 7 7 8 9
7 6 6 6 7 8 8 8 9 8 8 8 8 8 7 7 6 5 5 5 5 5 6 6 6 7 7 7 7 6 6 6 6 6 6 6 6 5 6 6 5 6 6 7 7 7 8 8 8
9 8 7 7 7 8 10 9 9 10 9 8 9 9 8 8 6 6 6 6 6 6 5 5 6 7 7 7 7 7 7 6 6 6 7 7 7 6 6 7 7 7 7 7 7 8 9 9 9
9 9 7 7 8 9 9 10 10 10 10 10 9 9 9 9 8 7 7 7 7 6 5 5 5 6 7 7 7 7 7 7 7 7 7 7 7 7 7 7 8 8 8 8 8 9 9 10 9
11 9 8 9 11 10 10 11 10 11 11 10 10 10 10 8 8 8 7 7 7 7 6 5 6 6 7 7 8 8 8 8 9 8 7 8 8 7 7 8 8 8 9 9 10 10 10 10 10
11 9 9 9 11 11 10 11 12 12 11 11 11 11 10 9 9 8 8 8 8 7 6 7 7 7 8 9 9 9 9 9 10 9 9 9 9 8 8 9 9 9 9 10 10 10 10 11 11
11 10 10 10 11 12 11 11 13 13 13 12 13 13 12 11 10 9 9 9 8 8 8 8 8 9 9 9 10 10 11 11 11 10 11 11 11 10 10 10 10 10 11 11 11 11 11 11 12
13 12 12 12 13 13 12 13 13 14 16 16 14 14 13 12 11 10 9 9 9 9 9 9 10 11 11 11 11 12 13 13 12 12 12 12 12 12 12 12 12 12 12 11 12 12 12 12 13
15 15 14 14 14 14 15 14 15 16 17 17 15 14 14 14 12 11 11 11 11 11 11 11 12 12 13 13 13 14 15 15 14 14 14 14 14 14 14 14 14 14 14 14 13 14 13 14 14
17 16 15 16 16 17 16 17 17 16 16 17 17 17 16 14 14 13 13 13 12 12 12 13 14 14 14 15 15 15 15 16 17 17 17 15 15 15 15 16 15 15 15 16 15 15 15 15 15
19 19 18 18 19 19 18 18 17 16 16 16 18 18 17 15 15 15 14 14 13 14 14 15 15 15 16 16 16 16 17 18 18 18 17 17 17 17 17 17 17 16 17 17 17 17 17 17 18
21 22 21 21 22 22 21 20 18 17 17 17 18 18 18 17 17 16 16 16 15 15 15 15 16 16 16 17 17 17 18 18 19 19 18 18 17 17 18 18 17 17 18 18 19 19 19 19 19
Wind_Direction
72 74 71 69 64 60 57 47 40 38 52 48 50 52 52 40 41 38 31 31 42 50 55 70 82 94 106 126 155 155 161 162 160 162 164 165 161 161 159 157 161 165 159 158 153 140 133 134 132
73 70 67 63 58 52 46 43 43 41 44 45 48 47 49 43 34 32 34 34 42 47 52 71 83 92 107 123 141 149 160 166 163 158 160 162 161 162 166 164 166 163 153 147 140 133 124 123 130
77 69 64 57 47 40 42 40 41 37 37 42 47 46 45 43 40 36 37 41 49 55 57 79 82 89 98 119 131 145 163 166 162 161 167 169 173 175 167 168 166 157 141 125 125 123 126 121 137
79 72 62 51 38 33 33 36 35 34 34 40 41 43 43 42 42 40 37 36 46 59 63 74 77 89 91 108 129 144 157 166 165 169 170 167 173 179 169 157 155 155 140 131 126 131 138 143 165
70 66 56 40 28 30 30 34 35 36 34 34 36 40 44 47 44 42 40 39 48 59 67 77 75 75 77 81 95 126 150 166 172 169 163 168 177 174 167 161 157 153 142 131 129 140 157 171 176
66 60 48 34 20 25 31 31 30 34 34 33 38 43 48 49 49 46 44 45 47 55 58 62 64 61 63 63 74 97 121 138 153 161 162 167 174 168 166 168 165 159 159 143 136 169 174 180 180
72 68 49 33 22 20 22 23 29 33 35 36 38 41 46 47 48 45 41 44 46 51 53 57 58 61 66 70 80 85 96 118 136 144 150 157 161 162 165 171 163 160 189 204 180 202 200 193 183
66 68 53 31 23 20 20 23 26 28 32 33 35 40 45 46 44 42 38 43 45 46 52 52 60 65 68 73 84 96 104 115 126 136 145 157 166 171 176 185 181 186 205 209 229 226 197 184 188
70 57 50 34 23 23 23 27 27 28 31 30 34 40 42 40 38 39 40 42 47 44 48 44 61 68 70 74 83 102 113 115 123 134 143 144 145 152 176 216 214 180 195 242 254 235 236 232 216
66 56 44 41 30 30 29 30 27 30 31 29 32 33 38 36 34 39 43 46 47 45 46 44 51 61 62 58 67 91 106 117 123 127 139 137 139 160 189 243 234 210 211 233 309 308 270 264 263
64 45 28 33 36 33 32 28 25 28 26 27 30 31 33 32 33 37 40 43 46 46 46 46 46 51 54 56 56 64 78 90 91 95 125 164 205 170 272 61 202 199 218 274 302 308 288 279 280
53 36 23 30 43 38 29 26 19 21 22 20 24 26 28 29 33 35 36 40 45 46 42 40 37 41 46 48 53 55 64 71 72 71 74 93 349 251 218 221 191 219 247 282 294 306 300 295 295
40 29 23 31 39 33 26 20 15 16 17 19 22 20 19 24 28 29 31 38 43 43 40 36 33 37 34 32 37 45 47 56 59 66 76 67 42 183 228 275 260 259 270 286 288 298 308 304 305
37 7 2 10 22 22 18 7 6 7 11 13 16 16 18 19 24 30 32 36 35 35 35 33 31 32 28 28 29 29 32 44 47 56 59 284 260 298 284 276 278 279 285 298 298 296 305 304 301
51 13 2 2 8 3 3 359 358 356 3 4 8 12 15 17 22 27 28 29 28 29 28 26 26 25 24 26 26 23 21 21 28 32 29 10 354 336 300 278 281 288 292 299 297 297 303 309 304
55 9 351 3 351 340 340 341 349 345 351 356 4 11 13 13 16 18 20 20 21 23 22 21 21 18 20 22 19 16 12 8 7 14 21 17 353 349 321 299 304 299 298 296 296 296 301 305 302
59 321 332 346 336 334 334 333 338 337 339 344 353 1 5 6 8 12 13 15 15 14 14 12 12 13 12 10 10 5 2 5 4 4 2 354 344 343 322 310 306 308 305 297 294 293 294 298 299
221 273 297 315 318 320 323 318 327 329 327 335 340 347 355 360 0 3 5 8 11 13 13 10 6 6 7 9 10 6 4 10 11 8 359 345 334 328 326 309 310 307 310 301 296 298 297 297 298
243 250 275 294 303 303 301 305 318 326 319 321 326 331 338 346 351 352 353 355 358 0 4 5 3 3 5 4 5 7 4 4 5 2 0 357 347 333 333 322 307 304 313 314 307 305 301 295 296
248 258 265 285 289 296 299 297 303 310 309 308 313 319 322 327 334 334 335 336 339 344 348 353 355 355 354 355 358 360 354 350 355 1 1 359 351 345 340 342 329 317 315 319 315 311 307 300 301
238 252 256 269 286 297 305 299 302 306 303 299 301 306 311 314 315 322 322 325 326 330 337 344 347 346 346 347 351 351 351 349 348 350 353 353 348 340 338 347 337 329 320 321 318 316 314 310 307
242 250 256 264 276 281 293 295 302 299 300 302 303 305 307 306 305 306 308 311 314 320 325 332 335 338 338 341 341 341 341 341 340 339 342 343 339 336 333 338 337 332 326 322 324 319 316 313 310
242 246 248 252 262 273 288 295 298 297 297 302 301 304 303 303 305 303 300 303 306 311 311 315 319 326 327 328 330 331 334 333 331 332 336 335 331 334 335 334 332 323 322 323 323 323 321 316 314
245 247 251 260 267 270 281 285 291 291 295 291 293 294 294 297 300 303 299 296 296 296 299 303 306 313 315 317 319 320 323 325 327 329 328 323 322 328 331 330 327 321 318 318 319 320 321 318 316
243 249 256 260 263 266 270 270 280 289 293 285 282 287 289 290 292 296 296 290 291 290 292 297 298 301 306 310 313 313 313 315 318 319 318 316 314 318 322 323 322 319 316 314 313 313 315 315 316
245 244 249 258 268 276 274 272 272 279 282 281 281 284 289 289 286 286 289 289 287 288 288 291 294 296 299 303 306 309 308 306 306 308 312 312 311 314 315 317 317 316 315 312 310 309 309 311 312
249 248 249 255 257 261 264 269 268 272 277 284 289 285 285 286 286 286 285 287 285 287 288 288 289 293 296 298 300 302 302 302 301 305 306 308 305 305 308 310 312 313 313 312 309 307 306 307 310
247 253 253 252 255 260 260 262 268 270 275 287 290 288 282 282 283 283 285 286 288 286 286 288 287 289 291 293 296 298 299 301 299 299 301 303 300 298 301 304 305 307 308 311 308 306 306 305 306
250 249 245 247 249 254 260 263 270 271 274 281 284 287 283 283 283 283 284 284 283 285 286 287 285 286 289 291 294 295 297 300 302 302 302 299 298 297 299 301 300 300 301 303 304 304 304 303 303
249 250 250 248 250 253 254 259 265 267 271 273 277 279 278 281 283 283 282 283 284 285 286 286 285 283 286 289 290 292 295 297 300 301 302 300 298 297 297 299 300 299 300 302 302 302 302 302 300
Height
5886 5886 5886 5886 5885 5885 5884 5884 5883 5882 5881 5880 5880 5879 5878 5878 5878 5879 5876 5875 5875 5874 5873 5873 5872 5871 5870 5870 5871 5872 5874 5875 5877 5878 5879 5880 5881 5881 5882 5883 5884 5885 5885 5886 5887 5887 5887 5888 5888
5889 5889 5888 5888 5887 5887 5887 5886 5885 5884 5883 5882 5881 5880 5880 5879 5879 5878 5877 5876 5876 5875 5874 5874 5873 5872 5871 5871 5872 5873 5875 5876 5877 5878 5879 5880 5881 5882 5883 5884 5885 5886 5886 5887 5888 5888 5889 5889 5890
5891 5890 5889 5890 5889 5890 5889 5887 5886 5885 5885 5883 5883 5882 5881 5880 5880 5879 5878 5877 5877 5876 5876 5875 5875 5874 5873 5873 5873 5873 5875 5876 5878 5879 5880 5881 5882 5883 5884 5884 5885 5886 5887 5888 5888 5889 5890 5890 5890
5893 5891 5893 5893 5893 5892 5891 5890 5888 5887 5886 5885 5884 5883 5882 5881 5881 5880 5879 5879 5878 5877 5877 5876 5876 5875 5874 5874 5874 5874 5875 5876 5878 5879 5881 5882 5883 5884 5885 5885 5886 5887 5888 5889 5889 5890 5890 5891 5891
5894 5893 5895 5896 5895 5894 5893 5892 5890 5889 5888 5887 5886 5885 5884 5883 5882 5882 5881 5880 5879 5878 5878 5878 5877 5877 5876 5876 5875 5875 5876 5877 5878 5880 5881 5882 5883 5884 5885 5886 5887 5888 5888 5889 5890 5890 5891 5891 5891
5896 5896 5899 5899 5898 5896 5895 5894 5892 5891 5890 5888 5888 5887 5886 5885 5884 5883 5882 5881 5880 5880 5880 5879 5879 5878 5878 5877 5876 5877 5877 5878 5879 5880 5882 5883 5884 5885 5886 5887 5888 5889 5889 5890 5890 5891 5891 5891 5891
5900 5900 5902 5901 5900 5898 5897 5895 5894 5893 5891 5890 5889 5889 5888 5887 5886 5885 5884 5883 5882 5882 5881 5881 5880 5880 5880 5879 5878 5879 5879 5879 5880 5882 5883 5884 5885 5886 5887 5888 5889 5889 5890 5890 5891 5891 5891 5892 5892
5903 5903 5904 5903 5902 5900 5899 5897 5896 5895 5893 5893 5892 5891 5889 5889 5888 5887 5886 5885 5884 5884 5883 5883 5882 5882 5881 5881 5880 5881 5881 5881 5882 5883 5884 5885 5886 5887 5888 5888 5889 5890 5890 5890 5891 5891 5891 5892 5892
5906 5907 5906 5905 5903 5902 5900 5899 5898 5896 5895 5894 5893 5892 5891 5890 5889 5888 5887 5887 5886 5886 5885 5884 5884 5883 5883 5883 5882 5882 5882 5882 5883 5884 5885 5886 5886 5887 5888 5889 5889 5890 5890 5891 5891 5891 5891 5892 5892
5908 5908 5907 5906 5905 5903 5902 5901 5899 5898 5897 5896 5895 5894 5893 5892 5891 5890 5889 5889 5888 5887 5887 5886 5886 5885 5885 5884 5884 5884 5884 5884 5885 5885 5886 5886 5887 5888 5888 5889 5889 5890 5890 5891 5891 5891 5891 5892 5892
5910 5910 5909 5907 5906 5905 5904 5903 5901 5900 5899 5898 5897 5896 5894 5894 5893 5892 5891 5890 5889 5889 5888 5888 5888 5887 5887 5887 5886 5886 5886 5886 5886 5886 5886 5887 5887 5888 5889 5889 5890 5890 5891 5891 5891 5892 5892 5892 5892
5912 5911 5910 5908 5907 5906 5905 5905 5903 5902 5901 5900 5898 5897 5896 5895 5894 5893 5893 5892 5891 5891 5890 5890 5889 5889 5888 5888 5888 5888 5887 5887 5887 5887 5887 5888 5888 5889 5890 5890 5890 5891 5891 5891 5892 5892 5892 5892 5892
5912 5912 5911 5910 5909 5908 5907 5906 5905 5904 5903 5901 5900 5899 5898 5897 5896 5895 5894 5894 5893 5893 5892 5891 5891 5890 5890 5890 5889 5889 5889 5888 5888 5888 5888 5888 5889 5889 5890 5890 5890 5891 5891 5891 5891 5891 5891 5891 5891
5913 5912 5912 5911 5910 5909 5908 5908 5906 5905 5904 5903 5902 5901 5899 5898 5897 5896 5896 5896 5895 5894 5894 5893 5892 5892 5892 5891 5891 5890 5890 5889 5889 5889 5888 5888 5889 5889 5889 5890 5890 5890 5890 5891 5891 5891 5891 5891 5891
5913 5913 5913 5912 5911 5911 5910 5909 5907 5906 5905 5904 5903 5902 5901 5900 5899 5898 5898 5897 5897 5896 5895 5895 5894 5894 5893 5892 5892 5891 5891 5890 5890 5889 5889 5889 5889 5889 5889 5889 5890 5890 5890 5890 5890 5890 5890 5890 5890
5914 5916 5915 5914 5913 5912 5912 5910 5909 5907 5905 5905 5904 5903 5902 5901 5900 5899 5899 5898 5898 5897 5897 5896 5896 5895 5894 5894 5893 5892 5892 5891 5891 5890 5890 5890 5890 5889 5889 5889 5889 5889 5889 5889 5889 5889 5889 5889 5889
5916 5917 5916 5916 5915 5913 5913 5910 5910 5908 5907 5906 5905 5904 5903 5902 5901 5901 5900 5900 5899 5899 5898 5898 5897 5896 5896 5895 5894 5894 5893 5892 5892 5891 5891 5890 5890 5889 5889 5889 5889 5889 5889 5888 5888 5888 5888 5888 5887
5917 5917 5917 5917 5915 5914 5914 5911 5910 5909 5908 5906 5906 5905 5904 5903 5902 5902 5901 5900 5900 5900 5899 5899 5898 5897 5896 5896 5895 5894 5894 5893 5892 5892 5891 5890 5890 5889 5889 5889 5888 5888 5888 5888 5887 5887 5887 5886 5886
5915 5917 5917 5916 5915 5914 5914 5912 5910 5909 5908 5907 5906 5905 5904 5904 5903 5902 5902 5901 5901 5900 5900 5899 5899 5898 5897 5896 5895 5895 5894 5893 5893 5892 5892 5891 5890 5889 5889 5889 5888 5888 5887 5887 5886 5885 5885 5885 5884
5915 5916 5916 5915 5915 5914 5913 5911 5910 5910 5909 5908 5907 5906 5905 5904 5904 5903 5902 5901 5901 5900 5900 5899 5899 5898 5898 5897 5896 5895 5895 5894 5893 5893 5892 5891 5890 5889 5889 5889 5888 5887 5887 5886 5885 5884 5883 5883 5882
5914 5915 5915 5915 5914 5913 5912 5911 5909 5909 5908 5907 5907 5905 5904 5904 5903 5903 5902 5901 5901 5900 5900 5899 5899 5898 5898 5897 5896 5896 5895 5894 5893 5893 5892 5891 5890 5889 5888 5888 5888 5887 5886 5885 5884 5883 5883 5882 5881
5912 5913 5913 5914 5913 5912 5912 5910 5909 5907 5907 5906 5905 5905 5904 5903 5902 5902 5901 5900 5900 5900 5900 5899 5899 5898 5898 5897 5896 5896 5895 5894 5893 5893 5892 5891 5890 5889 5888 5888 5887 5886 5886 5885 5883 5882 5881 5880 5879
5910 5911 5911 5912 5911 5911 5911 5910 5909 5907 5906 5905 5904 5903 5902 5902 5901 5901 5900 5900 5899 5899 5899 5899 5899 5898 5898 5897 5896 5895 5895 5894 5893 5892 5891 5890 5889 5889 5888 5887 5886 5885 5885 5884 5882 5881 5880 5879 5878
5908 5909 5909 5909 5909 5909 5910 5909 5908 5905 5904 5903 5902 5902 5901 5900 5900 5899 5899 5899 5898 5898 5898 5898 5898 5897 5897 5896 5895 5895 5894 5893 5892 5891 5891 5890 5888 5887 5887 5886 5885 5884 5883 5882 5880 5879 5878 5877 5876
5906 5907 5907 5907 5907 5907 5908 5907 5907 5904 5903 5902 5901 5900 5899 5898 5898 5898 5898 5897 5897 5897 5897 5897 5896 5896 5896 5895 5894 5893 5893 5892 5891 5890 5890 5888 5887 5886 5885 5885 5883 5882 5881 5880 5878 5877 5876 5875 5874
5902 5904 5905 5906 5906 5906 5905 5904 5905 5903 5901 5900 5898 5898 5898 5897 5897 5897 5896 5896 5895 5895 5895 5895 5895 5894 5894 5893 5892 5892 5891 5890 5889 5888 5887 5886 5886 5885 5884 5883 5882 5880 5879 5877 5876 5875 5874 5873 5872
5899 5900 5902 5903 5903 5903 5902 5901 5901 5900 5899 5897 5896 5896 5896 5895 5895 5895 5894 5894 5893 5893 5893 5893 5892 5892 5892 5891 5890 5890 5889 5888 5886 5885 5884 5884 5883 5882 5881 5880 5879 5878 5876 5875 5873 5872 5871 5870 5869
5895 5897 5898 5898 5899 5898 5899 5898 5898 5896 5895 5895 5894 5894 5893 5893 5892 5892 5892 5891 5891 5890 5890 5890 5890 5889 5889 5888 5888 5887 5886 5885 5883 5882 5881 5880 5880 5879 5878 5877 5876 5875 5873 5872 5870 5869 5868 5867 5865
5892 5893 5893 5894 5895 5895 5894 5895 5893 5892 5892 5892 5891 5891 5890 5890 5889 5889 5889 5888 5888 5887 5887 5887 5886 5886 5886 5885 5885 5884 5883 5882 5880 5878 5878 5877 5876 5876 5875 5874 5872 5871 5870 5868 5867 5866 5864 5863 5862
5886 5887 5888 5889 5889 5889 5890 5892 5888 5889 5888 5887 5887 5887 5887 5887 5886 5885 5885 5884 5884 5884 5883 5883 5883 5883 5882 5882 5882 5881 5880 5878 5876 5875 5874 5873 5873 5872 5871 5870 5869 5867 5866 5865 5863 5862 5860 5859 5858